Location: Roanoke
(37.2710°N, 79.9420°W)
Time: 13:30:04
(UTC-04:00)

Cosmos 1441 Rocket - Visible Passes

Search period start: 05 July 2015 00:00
Search period end: 15 July 2015 00:00
Orbit: 503 x 549 km, 81.1° (Epoch: 04 July)

Date Brightness Start Highest point End Pass type
(mag) Time Alt. Az. Time Alt. Az. Time Alt. Az.
05 Jul 5.2 01:18:08 29° NNW 01:18:08 29° NNW 01:20:17 10° N visible
06 Jul 5.2 01:06:21 30° N 01:06:21 30° N 01:08:31 10° N visible
07 Jul 5.1 00:54:34 30° N 00:54:34 30° N 00:56:44 10° N visible
08 Jul 5.1 00:42:47 31° N 00:42:47 31° N 00:44:57 10° N visible
09 Jul 5.0 00:30:57 32° N 00:30:57 32° N 00:33:10 10° N visible
10 Jul 4.9 00:19:06 33° N 00:19:06 33° N 00:21:22 10° N visible
11 Jul 4.8 00:07:14 34° NNE 00:07:14 34° NNE 00:09:33 10° N visible
11 Jul 4.6 23:55:21 35° NNE 23:55:21 35° NNE 23:57:45 10° NNE visible
12 Jul 4.5 23:43:26 37° NNE 23:43:26 37° NNE 23:45:55 10° NNE visible
13 Jul 4.4 23:31:30 38° NNE 23:31:30 38° NNE 23:34:05 10° NNE visible
14 Jul 4.2 23:19:32 39° NE 23:19:32 39° NE 23:22:15 10° NNE visible
